Weather History for KCID - April, 2014

Change the Weather History Date:

Sunday, April 6, 2014

  Actual Average Record
Temperature  
Mean Temperature 49 °F 46 °F  
Max Temperature 61 °F 57 °F 87 °F (1991)
Min Temperature 36 °F 34 °F 1 °F (1982)
Degree Days  
Heating Degree Days 16 20  
Month to date heating degree days 151 124  
Since 1 July heating degree days 7260 6288  
Cooling Degree Days 0 0  
Month to date cooling degree days 0 0  
Year to date cooling degree days 0 0  
Moisture  
Dew Point 32 °F    
Average Humidity 56    
Maximum Humidity 76    
Minimum Humidity 36    
Precipitation  
Precipitation T in 0.09 in 0.33 in (2005)
Month to date precipitation 0.18 0.49  
Year to date precipitation 2.32 4.73  
Sea Level Pressure  
Sea Level Pressure 29.99 in    
Wind  
Wind Speed 9 mph (SSE)    
Max Wind Speed 20 mph    
Max Gust Speed 24 mph    
Visibility 10 miles    
Events Rain    
T = Trace of Precipitation, MM = Missing Value Source: NWS Daily Summary

Daily Weather History Graph

Daily Weather History Graph

Search for Another Location

Airport or City:

Trip Planner

Search our weather history database for the weather conditions in past years. The results will help you decide how hot, cold, wet, or windy it might be!

Date:

Astronomy

Apr. 06, 2014 Rise Set
Actual Time 6:41 AM CDT 7:37 PM CDT
Civil Twilight 6:12 AM CDT 8:06 PM CDT
Nautical Twilight 5:39 AM CDT 8:40 PM CDT
Astronomical Twilight 5:03 AM CDT 9:15 PM CDT
Moon 11:39 AM CDT (4/6) 1:37 AM CDT (4/6)
Length of Visible Light 13h 53m
Length of Day
12h 56m
Waxing Crescent, 44% of the Moon is Illuminated
Apr 6
Waxing Crescent
Apr 7
First Quarter
Apr 15
Full
Apr 22
Last Quarter
Apr 29
New

Hourly Weather History & Observations

Time (CDT) Temp. Windchill Dew Point Humidity Pressure Visibility Wind Dir Wind Speed Gust Speed Precip Events Conditions
12:52 AM 37.0 °F 31.6 °F 27.0 °F 67% 30.09 in 10.0 mi SSE 6.9 mph - N/A   Mostly Cloudy
1:52 AM 37.0 °F 32.4 °F 28.0 °F 70% 30.08 in 10.0 mi SSE 5.8 mph - N/A   Mostly Cloudy
2:52 AM 37.0 °F 33.3 °F 28.9 °F 73% 30.07 in 10.0 mi SSE 4.6 mph - N/A   Overcast
3:52 AM 37.9 °F 31.5 °F 28.9 °F 70% 30.07 in 10.0 mi South 9.2 mph - N/A   Overcast
4:52 AM 37.9 °F 32.1 °F 30.0 °F 73% 30.06 in 10.0 mi SSE 8.1 mph - N/A   Overcast
5:52 AM 39.0 °F 31.4 °F 30.9 °F 73% 30.07 in 10.0 mi South 12.7 mph - N/A   Overcast
6:52 AM 41.0 °F 34.7 °F 30.9 °F 67% 30.06 in 9.0 mi South 10.4 mph - N/A   Overcast
7:52 AM 42.1 °F 36.1 °F 32.0 °F 67% 30.06 in 9.0 mi South 10.4 mph - N/A   Mostly Cloudy
8:52 AM 45.0 °F 38.2 °F 32.0 °F 60% 30.06 in 10.0 mi South 15.0 mph - N/A   Clear
9:52 AM 50.0 °F - 32.0 °F 50% 30.03 in 10.0 mi South 13.8 mph - N/A   Clear
10:52 AM 50.0 °F - 33.1 °F 52% 30.03 in 10.0 mi South 10.4 mph - N/A   Partly Cloudy
11:52 AM 53.1 °F - 33.1 °F 47% 30.02 in 10.0 mi SSE 12.7 mph - N/A   Partly Cloudy
12:52 PM 57.0 °F - 33.1 °F 40% 29.97 in 10.0 mi SE 9.2 mph - N/A   Partly Cloudy
1:52 PM 60.1 °F - 33.1 °F 36% 29.94 in 10.0 mi ESE 6.9 mph - N/A   Scattered Clouds
2:52 PM 60.1 °F - 34.0 °F 38% 29.93 in 10.0 mi SSE 12.7 mph - N/A   Mostly Cloudy
3:52 PM 59.0 °F - 33.1 °F 38% 29.92 in 10.0 mi SSE 12.7 mph - N/A   Overcast
4:52 PM 57.0 °F - 36.0 °F 45% 29.92 in 10.0 mi SSE 8.1 mph - 0.00 in Rain Light Rain
5:52 PM 59.0 °F - 33.1 °F 38% 29.91 in 10.0 mi SSE 6.9 mph - 0.00 in   Overcast
6:52 PM 57.0 °F - 34.0 °F 42% 29.90 in 10.0 mi SSE 9.2 mph - N/A   Clear
7:52 PM 53.1 °F - 34.0 °F 48% 29.91 in 10.0 mi SSE 6.9 mph - N/A   Overcast
8:52 PM 51.1 °F - 34.0 °F 52% 29.91 in 10.0 mi SSE 8.1 mph - N/A   Overcast
9:52 PM 50.0 °F - 33.1 °F 52% 29.91 in 10.0 mi SSE 3.5 mph - N/A   Overcast
10:52 PM 46.9 °F - 33.1 °F 59% 29.91 in 10.0 mi SE 3.5 mph - N/A   Overcast
11:52 PM 46.0 °F 43.9 °F 33.1 °F 61% 29.90 in 10.0 mi ESE 4.6 mph - N/A   Overcast